This is the latest recevied weather packets stored in our database for station/object F5LKO-13. If no packets are shown the sender has not sent any weather packets the latest 10 day(s).
| Time | Temp. | Humidity | Pressure | Rain* | Wind** | Luminosity | Snow |
|---|---|---|---|---|---|---|---|
| 1778091572 | 15.56° C | 99% | 1015.7 hPa | 0 mm | - | 0 W/m² | - |
| 1778091257 | 15.56° C | 99% | 1015.7 hPa | 0 mm | - | 0 W/m² | - |
| 1778090951 | 15.56° C | 99% | 1015.6 hPa | 0 mm | - | 0 W/m² | - |
| 1778090645 | 15.56° C | 99% | 1015.7 hPa | 0 mm | - | 0 W/m² | - |
| 1778090339 | 15.56° C | 99% | 1015.6 hPa | 0 mm | - | 0 W/m² | - |
| 1778090032 | 16.11° C | 99% | 1015.5 hPa | 0 mm | - | 0 W/m² | - |
| 1778089734 | 16.11° C | 99% | 1015.5 hPa | 0 mm | - | 0 W/m² | - |
| 1778089419 | 17.22° C | 99% | 1015.5 hPa | 0 mm | - | 0 W/m² | - |
| 1778089114 | 16.67° C | 99% | 1015.5 hPa | 0 mm | - | 0 W/m² | - |
| 1778088808 | 16.67° C | 99% | 1015.5 hPa | 0 mm | - | 1 W/m² | - |
| 1778088502 | 16.67° C | 99% | 1015.6 hPa | 0 mm | - | 1 W/m² | - |
| 1778088196 | 17.78° C | 99% | 1015.5 hPa | 0 mm | - | 0 W/m² | - |
| 1778087898 | 17.78° C | 99% | 1015.6 hPa | 0 mm | - | 1 W/m² | - |
| 1778087583 | 17.78° C | 99% | 1015.6 hPa | 0 mm | - | 1 W/m² | - |
| 1778087278 | 17.22° C | 99% | 1015.5 hPa | 0 mm | - | 2 W/m² | - |
| 1778086972 | 18.33° C | 99% | 1015.5 hPa | 0 mm | - | 1 W/m² | - |
| 1778086665 | 17.78° C | 99% | 1015.5 hPa | 0 mm | - | 1 W/m² | - |
| 1778086359 | 17.78° C | 99% | 1015.5 hPa | 0 mm | - | 1 W/m² | - |
| 1778086061 | 17.22° C | 99% | 1015.5 hPa | 0 mm | - | 1 W/m² | - |
| 1778085746 | 18.33° C | 99% | 1015.5 hPa | 0 mm | - | 2 W/m² | - |
| 1778085440 | 18.89° C | 99% | 1015.4 hPa | 0 mm | - | 0 W/m² | - |
| 1778085134 | 18.89° C | 99% | 1015.4 hPa | 0 mm | - | 3 W/m² | - |
| 1778084828 | 18.89° C | 99% | 1015.3 hPa | 0 mm | - | 4 W/m² | - |
| 1778084522 | 18.89° C | 99% | 1015.3 hPa | 0 mm | - | 5 W/m² | - |
| 1778084224 | 18.33° C | 99% | 1015.4 hPa | 0 mm | - | 7 W/m² | - |
* Rain latest hour (hover to see other rain measurements)
** Current wind speed in m/s (hover to see current wind gust speed)